Regional Weather Roundup
Issued by NWS Raleigh/Durham, NC

Home | Current Version | Previous Version | Text Only | Print | Product List | Glossary On
Versions: 1 2 3 4 5 6 7 8 9 10 11 12 13 14 15 16 17 18 19 20 21 22 23 24 25 26 27 28 29 30 31 32 33 34 35 36 37 38 39 40 41 42 43 44 45 46 47 48 49 50
000
ASUS42 KRAH 021210
RWRRAH
NORTH CAROLINA WEATHER ROUNDUP
NATIONAL WEATHER SERVICE RALEIGH NC
800 AM EDT THU JUL 02 2015

NOTE: "FAIR" INDICATES FEW OR NO CLOUDS BELOW 12,000 FEET WITH NO
SIGNIFICANT WEATHER AND/OR OBSTRUCTIONS TO VISIBILITY.

NCZ001-053-055-056-065-067-021300-
WESTERN NORTH CAROLINA

CITY           SKY/WX    TMP DP  RH WIND       PRES   REMARKS
ASHEVILLE      CLOUDY    66  62  87 CALM      30.04R
JEFFERSON      NOT AVBL
HICKORY        CLOUDY    70  65  84 CALM      29.97S
RUTHERFORDTON  NOT AVBL
MOUNT AIRY     NOT AVBL
BOONE          NOT AVBL
$$

NCZ021-022-025-041-071-084-088-021300-
CENTRAL NORTH CAROLINA

CITY           SKY/WX    TMP DP  RH WIND       PRES   REMARKS
CHARLOTTE      CLOUDY    72  64  76 SW6       29.97S
GREENSBORO     CLOUDY    72  68  87 W7        29.95R FOG
WINSTON-SALEM  CLOUDY    72  66  81 W6        29.97R HAZE
RALEIGH-DURHAM CLOUDY    75  70  84 SW5       29.94R FOG
FORT BRAGG     CLOUDY    75  69  81 SW6       29.94R
FAYETTEVILLE   CLOUDY    75  69  81 SW8       29.95R
BURLINGTON     CLOUDY    72  68  87 SW5       29.93R FOG
LAURINBURG     CLOUDY    73  67  81 SW6       29.97R HAZE
$$

NCZ011-015-027-028-043-044-047-080-103-021300-
NORTHEASTERN NORTH CAROLINA

CITY           SKY/WX    TMP DP  RH WIND       PRES   REMARKS
ROCKY MT-WILSO CLOUDY    76  73  91 SW6       29.93R FOG
GREENVILLE     NOT AVBL
ELIZABETH CITY MOSUNNY   78  73  84 SW12      29.92R
MANTEO         NOT AVBL
CAPE HATTERAS  SUNNY     80  75  84 SW8       29.95R
$$

NCZ078-087-090-091-093-098-101-021300-
SOUTHEASTERN NORTH CAROLINA

CITY           SKY/WX    TMP DP  RH WIND       PRES   REMARKS
LUMBERTON      CLOUDY    76  68  76 SW7       29.96R
GOLDSBORO      CLOUDY    76  72  85 SW9       29.93R
KINSTON        CLOUDY    77  72  83 SW7         N/A  FOG
KENANSVILLE    NOT AVBL
NEW BERN       SUNNY     76  72  87 SW6       29.97R
CHERRY POINT   SUNNY     78  73  84 SW8       29.96R
BEAUFORT       MOSUNNY   81  77  88 SW14      29.96R
JACKSONVILLE   MOSUNNY   78  71  79 W9        29.96R
WILMINGTON     MOSUNNY   79  71  76 SW9       29.97R
$$



USA.gov is the U.S. government's official web portal to all federal, state and local government web resources and services.